Location: Newark
(50.2306°N, 14.0814°E)
Time: 12:23:05
(UTC+00:00)

N. Korean satellite - Pass Details

Date: 08 December 2019
Orbit: 454 x 508 km, 97.2° (Epoch: 17 January)

Event Time Altitude Azimuth Distance (km) Brightness Sun altitude
Rises 04:16:23 0° 23° (NNE) 2,568 10.4 -23.3°
Reaches altitude 10° 04:18:46 10° 38° (NE) 1,670 9.6 -23.0°
Maximum altitude 04:21:44 24° 94° (E) 1,028 9.0 -22.5°
Drops below altitude 10° 04:24:38 10° 150° (SSE) 1,632 9.7 -22.0°
Sets 04:26:56 0° 164° (SSE) 2,493 10.5 -21.7°
